[[[{"header":{"parameterUnit":"kt","parameterCategory":2,"dx":1,"dy":1,"la1":30.253999710083008,"la2":30.299108505249023,"lo1":-89.0895004272461,"lo2":-89.04439544677734,"nx":28,"ny":28,"refTime":"2022-10-05T21:00:00:Z","depth":0,"parameterNumber":1,"parameterNumberName":"U-component_of_WINDS"},"data":[0.6097,0.6197,0.6241,0.6375,0.6437,0.6536,0.6586,0.6654,0.6721,0.6844,0.6923,0.6979,0.7063,0.7169,0.7257,0.7281,0.7315,0.7316,0.7343,0.7295,0.7292,0.7288,0.7267,0.7323,0.7323,0.7386,0.7386,0.7387,0.6053,0.6115,0.6199,0.6311,0.6384,0.6408,0.6499,0.6558,0.6647,0.673,0.6811,0.6924,0.702,0.7107,0.7206,0.7254,0.7272,0.7278,0.7275,0.7288,0.7239,0.7216,0.7261,0.7261,0.7261,0.7261,0.7261,0.7261,0.5984,0.6042,0.6136,0.6229,0.6298,0.6373,0.6436,0.6504,0.6587,0.6697,0.6736,0.6837,0.693,0.7075,0.7135,0.7215,0.7218,0.7239,0.7244,0.7248,0.7246,0.7146,0.7235,0.7235,0.7235,0.7235,0.7235,0,0.5948,0.5981,0.6066,0.6164,0.6234,0.6315,0.6397,0.6438,0.6527,0.6593,0.6692,0.6757,0.6886,0.6985,0.709,0.715,0.7184,0.7194,0.7208,0.719,0.716,0.7176,0.7092,0.7191,0.7191,0.7191,0.7191,0.7191,0.5881,0.5945,0.6067,0.612,0.6177,0.6263,0.6324,0.6397,0.6459,0.6571,0.662,0.672,0.6805,0.6958,0.7039,0.7136,0.7155,0.7187,0.717,0.7149,0.7155,0.715,0.7156,0.7189,0.7189,0.7189,0.7189,0,0.5839,0.5914,0.6028,0.6144,0.6175,0.6238,0.6337,0.64,0.646,0.6555,0.6581,0.6677,0.6774,0.6851,0.6979,0.7016,0.712,0.7135,0.7087,0.7094,0.713,0.7126,0.7237,0.7255,0.7199,0.7199,0.72,0,0.5812,0.5894,0.6001,0.6064,0.6156,0.623,0.632,0.6381,0.6464,0.6539,0.6591,0.6661,0.6749,0.683,0.6885,0.6984,0.7009,0.7043,0.7057,0.7039,0.7034,0.7074,0.7071,0.7087,0.7086,0.7086,0.7085,0,0.5738,0.5893,0.5995,0.6043,0.6176,0.6222,0.628,0.6375,0.6435,0.6525,0.6564,0.6664,0.6719,0.6795,0.6866,0.6851,0.6989,0.6984,0.7025,0.7023,0.7053,0.705,0.7128,0.7084,0.7084,0.7084,0.7084,0,0.5729,0.5818,0.5956,0.6068,0.6106,0.6174,0.6277,0.6353,0.6449,0.6489,0.6561,0.6605,0.67,0.6688,0.6819,0.678,0.683,0.6873,0.6877,0.6891,0.6876,0.691,0.6976,0.6986,0.6902,0.69,0.6899,0,0.5623,0.5783,0.5848,0.5978,0.6062,0.6115,0.6192,0.6276,0.6336,0.6416,0.6482,0.6574,0.6583,0.6623,0.6677,0.6749,0.68,0.6745,0.686,0.6864,0.6832,0.6894,0.6885,0.6953,0.6881,0.6882,0.6884,0,0.5551,0.5714,0.5733,0.5791,0.5915,0.5988,0.6076,0.6184,0.6234,0.6324,0.6401,0.6533,0.6544,0.6611,0.6659,0.6712,0.6768,0.6718,0.6721,0.6723,0.6879,0.6869,0.688,0.6788,0.6791,0.6793,0.6869,0,0.5518,0.561,0.5664,0.5791,0.586,0.5946,0.603,0.6091,0.6129,0.6191,0.6305,0.6398,0.651,0.6544,0.6584,0.668,0.6677,0.6689,0.6685,0.6725,0.6752,0.6764,0.6637,0.6637,0.6638,0.6638,0,0,0.5398,0.5532,0.5602,0.5692,0.5754,0.5809,0.5895,0.5962,0.6097,0.6139,0.6137,0.6337,0.6414,0.6544,0.6563,0.6609,0.6634,0.6618,0.6705,0.6713,0.6719,0.6747,0.6757,0.6638,0.6639,0.6639,0.6639,0,0.5404,0.5479,0.5563,0.5636,0.5746,0.5808,0.5828,0.5948,0.5992,0.6106,0.6151,0.623,0.6391,0.6465,0.6523,0.6604,0.6635,0.6631,0.6646,0.6706,0.6712,0.6719,0.6747,0.6756,0.664,0.664,0.664,0,0.5348,0.5436,0.5486,0.5631,0.5705,0.5792,0.5807,0.59,0.5966,0.6025,0.6137,0.6201,0.6308,0.6421,0.6476,0.6476,0.663,0.6598,0.6598,0.6606,0.6669,0.6677,0.6684,0.659,0.659,0.6589,0,0,0.5342,0.5428,0.5548,0.5639,0.5682,0.5776,0.5832,0.5878,0.5972,0.601,0.6093,0.6184,0.6278,0.6339,0.6432,0.6544,0.6573,0.6588,0.659,0.6592,0.6601,0.6663,0.6671,0.6587,0.6587,0.6587,0,0,0.534,0.5482,0.5505,0.5621,0.5709,0.5834,0.5887,0.5918,0.6011,0.6011,0.6094,0.6122,0.623,0.6291,0.6254,0.6432,0.6426,0.6437,0.6388,0.6392,0.6395,0.6378,0.6285,0,0,0,0,0,0.539,0.5464,0.5483,0.5515,0.5701,0.5823,0.5847,0.5917,0.591,0.595,0.6024,0.6055,0.6288,0.6257,0.6288,0.633,0.6562,0.6566,0.657,0.6534,0.6538,0.6541,0,0,0,0,0,0,0.5403,0.5443,0.5481,0.5608,0.565,0.5821,0.5825,0.5846,0.5908,0.5912,0.6039,0.6059,0.6121,0.6246,0.6273,0.6311,0.6276,0.6563,0.6567,0.6571,0.6536,0.6538,0.6541,0,0,0,0,0,0.5414,0.5446,0.5726,0.5608,0.5644,0.5755,0.5823,0.5841,0.589,0.6006,0.6026,0.5937,0.612,0.6148,0.6262,0.6297,0.6258,0.6268,0.6566,0.6569,0.6572,0.6537,0,0,0,0,0,0,0.5422,0.5463,0.5735,0.5748,0.5585,0.5746,0.5774,0.5835,0.5982,0.6002,0.5907,0.5909,0.6121,0.6142,0.6163,0.6288,0.6243,0.6253,0.6259,0.6568,0.6571,0.6573,0,0,0,0,0,0,0.5447,0.5475,0.5742,0.571,0.5721,0.5739,0.5763,0.5871,0.5983,0.5875,0.5881,0.5906,0.6089,0.6138,0.6155,0.6321,0.6232,0.6241,0.6248,0.6252,0.657,0.6572,0,0,0,0,0,0,0.546,0.5484,0.5707,0.5715,0.5725,0.5885,0.5836,0.6022,0.5954,0.5868,0.595,0.5948,0.6085,0.6103,0.6149,0.6308,0.6318,0.6232,0.6239,0.6243,0.6246,0,0,0,0,0,0,0,0.547,0.5293,0.5652,0.572,0.5728,0.5876,0.588,0.5884,0.5953,0.5952,0.595,0.5949,0.6177,0.6187,0.6198,0.6297,0,0,0.6231,0.6236,0,0,0,0,0,0,0,0,0.5285,0.5291,0.5653,0.5656,0.5658,0.5877,0.588,0.5883,0.5953,0.5952,0.595,0.5949,0.618,0.6188,0.6197,0,0,0,0,0,0,0,0,0,0,0,0,0,0,0,0.5653,0.5655,0,0.5877,0.588,0.5883,0.5953,0.5952,0.5951,0.595,0.6182,0.6189,0.6196,0,0,0,0,0,0,0,0,0,0,0,0,0,0,0,0,0,0,0,0,0,0,0,0,0,0,0,0,0,0,0,0,0,0,0,0,0,0,0,0,0,0,0,0,0,0,0,0,0,0,0,0,0,0,0,0,0,0,0,0,0,0,0,0,0,0,0,0,0]}],[{"header":{"parameterUnit":"kt","parameterCategory":2,"dx":1,"dy":1,"la1":30.253999710083008,"la2":30.299108505249023,"lo1":-89.0895004272461,"lo2":-89.04439544677734,"nx":28,"ny":28,"refTime":"2022-10-05T21:00:00:Z","depth":0,"parameterNumber":2,"parameterNumberName":"V-component_of_WINDS"},"data":[1.9362,1.931,1.9214,1.9109,1.9005,1.8914,1.885,1.8756,1.8657,1.8535,1.8446,1.8341,1.8198,1.8066,1.7961,1.7914,1.7874,1.7928,1.7862,1.7718,1.769,1.7664,1.7668,1.7923,1.7924,1.8022,1.8024,1.8024,1.9264,1.9161,1.908,1.8932,1.8859,1.875,1.8623,1.8567,1.8488,1.8366,1.8274,1.8157,1.805,1.7885,1.7764,1.7732,1.7668,1.7705,1.7701,1.7678,1.7523,1.7529,1.7758,1.7758,1.7758,1.7758,1.7758,1.7758,1.9059,1.9033,1.8887,1.8795,1.8695,1.8597,1.8552,1.8423,1.8338,1.8204,1.8102,1.8009,1.7862,1.7666,1.7575,1.7496,1.7435,1.7441,1.7441,1.7443,1.7458,1.7317,1.7471,1.747,1.7469,1.7468,1.7468,0,1.8876,1.8796,1.8709,1.8595,1.8522,1.8422,1.8313,1.8283,1.8075,1.8013,1.7914,1.7839,1.769,1.7581,1.7445,1.7345,1.7214,1.7193,1.7195,1.7238,1.7296,1.7256,1.7,1.7187,1.7184,1.7182,1.718,1.7179,1.8653,1.8637,1.8436,1.8388,1.8303,1.823,1.8164,1.7982,1.7919,1.7756,1.7739,1.7631,1.7532,1.7387,1.7228,1.7114,1.7047,1.7129,1.7028,1.7074,1.7038,1.7037,1.7031,1.7149,1.7153,1.7156,1.7159,0,1.8536,1.8375,1.8315,1.8116,1.8065,1.8055,1.7881,1.7847,1.7723,1.7656,1.7629,1.7432,1.7336,1.7162,1.7017,1.6928,1.6899,1.6842,1.6947,1.6923,1.6973,1.6968,1.7177,1.7192,1.6935,1.6938,1.6941,0,1.8278,1.8263,1.802,1.7994,1.797,1.7785,1.7765,1.7655,1.7527,1.7472,1.7301,1.7253,1.7038,1.6964,1.6833,1.678,1.6755,1.668,1.6643,1.669,1.6699,1.6645,1.6629,1.6573,1.6572,1.6571,1.657,0,1.8104,1.7958,1.7917,1.7856,1.7639,1.7623,1.7532,1.7385,1.7322,1.7212,1.7166,1.7053,1.6988,1.69,1.6732,1.667,1.6665,1.6544,1.6587,1.6591,1.6588,1.6589,1.6827,1.6569,1.6569,1.6568,1.6568,0,1.7866,1.7763,1.773,1.7542,1.751,1.7484,1.7357,1.7295,1.7152,1.7068,1.6979,1.684,1.6786,1.6677,1.6595,1.656,1.6505,1.643,1.643,1.6405,1.6286,1.6434,1.6686,1.6701,1.6395,1.6394,1.6392,0,1.7708,1.7631,1.747,1.7442,1.738,1.7188,1.7154,1.7034,1.6919,1.6847,1.6718,1.6637,1.6521,1.6469,1.6454,1.6314,1.636,1.6304,1.6191,1.619,1.6228,1.646,1.6536,1.6652,1.6372,1.6374,1.6375,0,1.7562,1.73,1.7306,1.7226,1.7039,1.6987,1.6951,1.683,1.6791,1.6677,1.6635,1.6522,1.6425,1.6345,1.6218,1.621,1.6323,1.6107,1.61,1.6145,1.6349,1.6421,1.6442,1.624,1.6242,1.6244,1.6359,0,1.7226,1.7167,1.718,1.7013,1.6947,1.6921,1.6735,1.6689,1.6574,1.6451,1.6391,1.6245,1.6119,1.6099,1.5986,1.6026,1.5989,1.5888,1.5761,1.592,1.5951,1.5966,1.5729,1.5724,1.572,1.5717,0,0,1.7109,1.702,1.6842,1.6799,1.6731,1.6529,1.6516,1.6426,1.6249,1.6204,1.6135,1.5952,1.5835,1.578,1.5815,1.5767,1.5754,1.5706,1.5848,1.5864,1.5877,1.5916,1.5934,1.571,1.5708,1.5707,1.5705,0,1.6945,1.6838,1.6831,1.6729,1.6573,1.6443,1.6442,1.625,1.6169,1.6112,1.594,1.5882,1.5743,1.5638,1.5567,1.5711,1.558,1.5689,1.5825,1.5814,1.5835,1.5853,1.5896,1.5915,1.5696,1.5696,1.5697,0,1.6762,1.6622,1.66,1.6438,1.6333,1.6276,1.61,1.6049,1.6003,1.5778,1.5722,1.5616,1.5462,1.5438,1.542,1.5354,1.5433,1.5377,1.5397,1.5388,1.5367,1.5393,1.5416,1.5116,1.5114,1.5113,0,0,1.6644,1.6589,1.6378,1.6389,1.6335,1.6141,1.6092,1.597,1.5839,1.5787,1.5645,1.5521,1.5435,1.5384,1.5295,1.5297,1.5245,1.5314,1.5341,1.5364,1.5368,1.5354,1.5379,1.5108,1.5108,1.5108,0,0,1.6586,1.6342,1.6249,1.6239,1.6122,1.5911,1.5923,1.5802,1.5704,1.5685,1.5474,1.5431,1.5406,1.5306,1.5266,1.5244,1.5125,1.513,1.5309,1.5341,1.5367,1.5388,1.5059,0,0,0,0,0,1.632,1.6373,1.6291,1.6261,1.6055,1.5958,1.593,1.5758,1.5676,1.5689,1.5551,1.5416,1.524,1.5199,1.5171,1.5215,1.5048,1.5058,1.5069,1.5298,1.5334,1.5363,0,0,0,0,0,0,1.6307,1.6271,1.6289,1.6085,1.6036,1.5955,1.5777,1.5731,1.567,1.5646,1.5448,1.541,1.526,1.5202,1.5179,1.5225,1.5066,1.5052,1.5061,1.5069,1.531,1.5339,1.5364,0,0,0,0,0,1.6295,1.6266,1.5981,1.6082,1.6041,1.5825,1.5773,1.5734,1.5683,1.5468,1.5427,1.5559,1.5266,1.5235,1.5187,1.5239,1.508,1.5073,1.5058,1.5065,1.5071,1.5324,0,0,0,0,0,0,1.6287,1.6228,1.5968,1.5949,1.6049,1.5826,1.5785,1.5737,1.5506,1.5466,1.5569,1.5553,1.5271,1.5246,1.5223,1.5254,1.5092,1.5084,1.5079,1.5063,1.5069,1.5074,0,0,0,0,0,0,1.6242,1.6214,1.5958,1.5926,1.5901,1.5828,1.5792,1.5726,1.5506,1.5619,1.5597,1.5565,1.5304,1.5254,1.5235,1.514,1.5101,1.5094,1.5088,1.5085,1.5068,1.5072,0,0,0,0,0,0,1.6227,1.6202,1.593,1.5911,1.5889,1.5658,1.5766,1.5563,1.5483,1.5632,1.547,1.5464,1.5316,1.5293,1.5245,1.5159,1.5145,1.5101,1.5096,1.5092,1.509,0,0,0,0,0,0,0,1.6214,1.6424,1.6084,1.5899,1.5879,1.577,1.5765,1.5759,1.5481,1.5476,1.5471,1.5467,1.5145,1.5136,1.5128,1.5175,0,0,1.5102,1.5098,0,0,0,0,0,0,0,0,1.643,1.6425,1.6083,1.6079,1.6075,1.5769,1.5765,1.5761,1.548,1.5476,1.5472,1.5469,1.5142,1.5136,1.5129,0,0,0,0,0,0,0,0,0,0,0,0,0,0,0,1.6083,1.6079,0,1.5769,1.5765,1.5762,1.548,1.5477,1.5473,1.547,1.5141,1.5135,1.5129,0,0,0,0,0,0,0,0,0,0,0,0,0,0,0,0,0,0,0,0,0,0,0,0,0,0,0,0,0,0,0,0,0,0,0,0,0,0,0,0,0,0,0,0,0,0,0,0,0,0,0,0,0,0,0,0,0,0,0,0,0,0,0,0,0,0,0,0,0]}]]]